THY1994 EGCC-LTFM

Flight info

Callsign THY1994
Flight time 3h 15m
Altitude 41000
Route SONEX UL975 DESIG L603 DOLAS DCT NAVPI DCT MISGO DCT DIXAT DCT TIVUN DCT ESAMA DCT OSBIT DCT BARSU DCT MOOCE DCT RUDNO DCT DEXIT DCT ARSIN DCT GITAS DCT MAVIR DCT GOVIN DCT NULGO DCT TIMUR L606 GASRU T390 RILEX
Aircraft A359/H-SDE2E3GHIJ3J4J5LM1ORWXY/LB1D1

Departure

Time 2026-05-07 15:03
Airport Manchester Airport (EGCC)

Arrival

Time 2026-05-07 18:18
Airport İstanbul Airport (LTFM)
Time Latitude Longitude Altitude Speed Heading
2026-05-07 14:31 53.35790 -2.27523 249 ft 0 kts 50°
2026-05-07 14:40 53.35785 -2.27534 249 ft 2 kts 51°
2026-05-07 14:40 53.35776 -2.27554 249 ft 2 kts 66°
2026-05-07 14:41 53.35772 -2.27578 248 ft 2 kts 88°
2026-05-07 14:41 53.35773 -2.27596 248 ft 0 kts 102°
2026-05-07 14:41 53.35776 -2.27614 248 ft 2 kts 115°
2026-05-07 14:42 53.35783 -2.27633 247 ft 2 kts 133°
2026-05-07 14:42 53.35794 -2.27649 247 ft 2 kts 152°
2026-05-07 14:42 53.35808 -2.27658 247 ft 2 kts 171°
2026-05-07 14:42 53.35819 -2.27659 247 ft 0 kts 186°
2026-05-07 14:43 53.35824 -2.27658 247 ft 0 kts 187°
2026-05-07 14:50 53.35819 -2.27659 247 ft 3 kts 187°
2026-05-07 14:50 53.35786 -2.27664 246 ft 5 kts 179°
2026-05-07 14:50 53.35755 -2.27656 247 ft 5 kts 166°
2026-05-07 14:51 53.35719 -2.27637 247 ft 0 kts 161°
2026-05-07 14:51 53.35716 -2.27636 247 ft 0 kts 161°
2026-05-07 14:51 53.35707 -2.27630 247 ft 2 kts 155°
2026-05-07 14:51 53.35690 -2.27617 247 ft 2 kts 155°
2026-05-07 14:52 53.35672 -2.27602 248 ft 1 kts 153°
2026-05-07 14:52 53.35667 -2.27596 248 ft 0 kts 144°
2026-05-07 14:52 53.35658 -2.27583 248 ft 9 kts 137°
2026-05-07 14:52 53.35647 -2.27567 248 ft 1 kts 138°
2026-05-07 14:53 53.35643 -2.27561 249 ft 0 kts 138°
2026-05-07 14:53 53.35636 -2.27549 249 ft 3 kts 140°
2026-05-07 14:53 53.35617 -2.27523 249 ft 3 kts 140°
2026-05-07 14:53 53.35597 -2.27496 250 ft 3 kts 140°
2026-05-07 14:54 53.35577 -2.27468 250 ft 3 kts 140°
2026-05-07 14:54 53.35556 -2.27439 251 ft 4 kts 140°
2026-05-07 14:54 53.35534 -2.27408 251 ft 4 kts 140°
2026-05-07 14:54 53.35511 -2.27377 252 ft 4 kts 141°
2026-05-07 14:55 53.35488 -2.27345 253 ft 4 kts 141°
2026-05-07 14:55 53.35466 -2.27314 254 ft 3 kts 141°
2026-05-07 14:55 53.35450 -2.27293 255 ft 2 kts 141°
2026-05-07 14:55 53.35442 -2.27282 255 ft 0 kts 141°
2026-05-07 14:56 53.35440 -2.27280 255 ft 0 kts 141°
2026-05-07 14:56 53.35439 -2.27278 255 ft 0 kts 141°
2026-05-07 14:56 53.35437 -2.27276 255 ft 0 kts 140°
2026-05-07 14:57 53.35419 -2.27252 256 ft 5 kts 141°
2026-05-07 14:57 53.35415 -2.27246 256 ft 0 kts 141°
2026-05-07 14:58 53.35412 -2.27242 257 ft 1 kts 141°
2026-05-07 14:58 53.35378 -2.27207 258 ft 5 kts 158°
2026-05-07 14:59 53.35350 -2.27195 258 ft 1 kts 172°
2026-05-07 14:59 53.35327 -2.27198 258 ft 5 kts 187°
2026-05-07 14:59 53.35277 -2.27209 256 ft 5 kts 190°
2026-05-07 14:59 53.35231 -2.27224 256 ft 8 kts 191°
2026-05-07 15:00 53.35170 -2.27245 254 ft 9 kts 192°
2026-05-07 15:00 53.35122 -2.27262 253 ft 2 kts 191°
2026-05-07 15:00 53.35092 -2.27271 253 ft 5 kts 191°
2026-05-07 15:00 53.35045 -2.27286 252 ft 4 kts 192°
2026-05-07 15:01 53.35021 -2.27302 251 ft 4 kts 207°
2026-05-07 15:01 53.34988 -2.27337 250 ft 0 kts 218°
2026-05-07 15:01 53.34981 -2.27350 249 ft 3 kts 230°
2026-05-07 15:01 53.34954 -2.27414 247 ft 13 kts 236°
2026-05-07 15:02 53.34884 -2.27570 241 ft 27 kts 232°
2026-05-07 15:02 53.34605 -2.28149 228 ft 105 kts 231°
2026-05-07 15:02 53.33988 -2.29430 207 ft 176 kts 230°
2026-05-07 15:02 53.33135 -2.31178 674 ft 210 kts 228°
2026-05-07 15:03 53.32125 -2.33144 1320 ft 241 kts 231°
2026-05-07 15:03 53.31445 -2.35844 2042 ft 274 kts 263°
2026-05-07 15:03 53.31839 -2.38928 3212 ft 281 kts 297°
2026-05-07 15:03 53.33162 -2.41320 4172 ft 282 kts 327°
2026-05-07 15:04 53.34978 -2.42314 4723 ft 276 kts 352°
2026-05-07 15:04 53.36887 -2.42687 4934 ft 277 kts 351°
2026-05-07 15:04 53.38785 -2.43244 4954 ft 277 kts 350°
2026-05-07 15:04 53.40680 -2.43055 4932 ft 276 kts 22°
2026-05-07 15:05 53.42178 -2.41141 4941 ft 271 kts 57°
2026-05-07 15:05 53.43025 -2.38298 5042 ft 287 kts 70°
2026-05-07 15:05 53.43825 -2.35058 5780 ft 314 kts 68°
2026-05-07 15:05 53.44750 -2.31808 7282 ft 311 kts 64°
2026-05-07 15:06 53.45731 -2.28744 8635 ft 299 kts 63°
2026-05-07 15:06 53.46744 -2.25777 9685 ft 296 kts 62°
2026-05-07 15:06 53.47783 -2.22814 10512 ft 301 kts 61°
2026-05-07 15:06 53.48860 -2.19716 11035 ft 316 kts 64°
2026-05-07 15:07 53.49752 -2.16260 11499 ft 331 kts 73°
2026-05-07 15:07 53.50326 -2.12454 11946 ft 346 kts 81°
2026-05-07 15:07 53.50758 -2.08404 12450 ft 359 kts 82°
2026-05-07 15:07 53.51173 -2.04252 13190 ft 365 kts 82°
2026-05-07 15:08 53.51595 -2.00058 13985 ft 368 kts 82°
2026-05-07 15:08 53.52030 -1.95814 14744 ft 372 kts 82°
2026-05-07 15:08 53.52369 -1.91521 15452 ft 375 kts 89°
2026-05-07 15:08 53.52240 -1.87167 16168 ft 376 kts 100°
2026-05-07 15:09 53.51656 -1.82908 16874 ft 378 kts 107°
2026-05-07 15:09 53.50908 -1.78662 17552 ft 382 kts 108°
2026-05-07 15:09 53.50132 -1.74390 18205 ft 386 kts 108°
2026-05-07 15:09 53.49350 -1.70058 18854 ft 390 kts 108°
2026-05-07 15:10 53.48567 -1.65678 19503 ft 393 kts 108°
2026-05-07 15:10 53.47781 -1.61258 20159 ft 396 kts 108°
2026-05-07 15:10 53.46996 -1.56837 20798 ft 399 kts 108°
2026-05-07 15:10 53.46195 -1.52365 21426 ft 402 kts 108°
2026-05-07 15:11 53.45385 -1.47847 22043 ft 405 kts 108°
2026-05-07 15:11 53.44573 -1.43330 22643 ft 408 kts 108°
2026-05-07 15:11 53.43753 -1.38773 23229 ft 411 kts 108°
2026-05-07 15:11 53.42921 -1.34177 23796 ft 414 kts 109°
2026-05-07 15:12 53.42080 -1.29526 24364 ft 417 kts 109°
2026-05-07 15:12 53.41236 -1.24861 24930 ft 419 kts 109°
2026-05-07 15:12 53.40387 -1.20179 25382 ft 424 kts 108°
2026-05-07 15:12 53.39525 -1.15446 25810 ft 428 kts 108°
2026-05-07 15:13 53.38654 -1.10685 26287 ft 431 kts 108°
2026-05-07 15:13 53.37777 -1.05898 26758 ft 433 kts 108°
2026-05-07 15:13 53.36885 -1.01043 27233 ft 435 kts 108°
2026-05-07 15:13 53.35994 -0.96204 27654 ft 437 kts 108°
2026-05-07 15:14 53.35089 -0.91300 28073 ft 439 kts 108°
2026-05-07 15:14 53.34188 -0.86432 28503 ft 441 kts 108°
2026-05-07 15:14 53.33280 -0.81536 28902 ft 443 kts 108°
2026-05-07 15:14 53.32365 -0.76614 29286 ft 445 kts 108°
2026-05-07 15:15 53.31444 -0.71686 29651 ft 447 kts 108°
2026-05-07 15:15 53.30519 -0.66742 30036 ft 448 kts 108°
2026-05-07 15:15 53.29582 -0.61745 30381 ft 450 kts 108°
2026-05-07 15:15 53.28643 -0.56746 30705 ft 451 kts 108°
2026-05-07 15:16 53.27702 -0.51757 31020 ft 453 kts 108°
2026-05-07 15:16 53.26753 -0.46740 31327 ft 455 kts 108°
2026-05-07 15:16 53.25805 -0.41738 31606 ft 456 kts 108°
2026-05-07 15:16 53.24843 -0.36675 31889 ft 458 kts 108°
2026-05-07 15:17 53.23883 -0.31635 32276 ft 457 kts 108°
2026-05-07 15:17 53.22927 -0.26617 32708 ft 455 kts 108°
2026-05-07 15:17 53.21967 -0.21595 33119 ft 453 kts 108°
2026-05-07 15:17 53.21008 -0.16595 33511 ft 452 kts 108°
2026-05-07 15:18 53.20051 -0.11626 33887 ft 450 kts 108°
2026-05-07 15:18 53.19093 -0.06672 34284 ft 449 kts 108°
2026-05-07 15:18 53.18142 -0.01761 34648 ft 447 kts 108°
2026-05-07 15:18 53.17185 0.03170 34974 ft 447 kts 108°
2026-05-07 15:19 53.16226 0.08095 35209 ft 447 kts 108°
2026-05-07 15:19 53.15268 0.13006 35428 ft 447 kts 108°
2026-05-07 15:19 53.14308 0.17916 35571 ft 448 kts 108°
2026-05-07 15:19 53.13337 0.22871 35702 ft 449 kts 108°
2026-05-07 15:20 53.12365 0.27813 35848 ft 451 kts 108°
2026-05-07 15:20 53.11391 0.32756 35973 ft 452 kts 108°
2026-05-07 15:20 53.10410 0.37720 36105 ft 453 kts 108°
2026-05-07 15:20 53.09424 0.42695 36233 ft 454 kts 108°
2026-05-07 15:21 53.08436 0.47670 36363 ft 455 kts 108°
2026-05-07 15:21 53.07443 0.52658 36518 ft 456 kts 108°
2026-05-07 15:21 53.06445 0.57658 36681 ft 457 kts 108°
2026-05-07 15:21 53.05444 0.62654 36866 ft 458 kts 108°
2026-05-07 15:22 53.04436 0.67681 37045 ft 459 kts 109°
2026-05-07 15:22 53.03422 0.72737 37221 ft 460 kts 109°
2026-05-07 15:22 53.02407 0.77782 37386 ft 461 kts 109°
2026-05-07 15:22 53.01388 0.82832 37543 ft 462 kts 109°
2026-05-07 15:23 53.00366 0.87870 37687 ft 464 kts 109°
2026-05-07 15:23 52.99332 0.92950 37833 ft 465 kts 109°
2026-05-07 15:23 52.98295 0.98030 37986 ft 466 kts 109°
2026-05-07 15:23 52.97231 1.03123 38133 ft 467 kts 110°
2026-05-07 15:24 52.96108 1.08159 38277 ft 467 kts 111°
2026-05-07 15:24 52.94959 1.13203 38416 ft 468 kts 111°
2026-05-07 15:24 52.93806 1.18250 38540 ft 469 kts 111°
2026-05-07 15:24 52.92652 1.23300 38680 ft 470 kts 111°
2026-05-07 15:25 52.91497 1.28358 38810 ft 471 kts 111°
2026-05-07 15:25 52.90338 1.33430 38932 ft 472 kts 111°
2026-05-07 15:25 52.89175 1.38493 39060 ft 473 kts 111°
2026-05-07 15:25 52.87998 1.43555 39188 ft 473 kts 112°
2026-05-07 15:26 52.86815 1.48643 39304 ft 474 kts 111°
2026-05-07 15:26 52.85630 1.53748 39416 ft 475 kts 111°
2026-05-07 15:26 52.84449 1.58844 39531 ft 476 kts 111°
2026-05-07 15:26 52.83267 1.63942 39647 ft 477 kts 111°
2026-05-07 15:27 52.82083 1.69051 39750 ft 477 kts 112°
2026-05-07 15:27 52.80898 1.74168 39846 ft 478 kts 112°
2026-05-07 15:27 52.78510 1.84436 40034 ft 480 kts 112°
2026-05-07 15:28 52.76106 1.94708 40216 ft 481 kts 112°
2026-05-07 15:28 52.73678 2.05028 40392 ft 482 kts 112°
2026-05-07 15:29 52.71235 2.15362 40549 ft 484 kts 112°
2026-05-07 15:29 52.68781 2.25694 40689 ft 485 kts 112°
2026-05-07 15:30 52.66310 2.36043 40829 ft 486 kts 112°
2026-05-07 15:30 52.63837 2.46361 40957 ft 487 kts 112°
2026-05-07 15:31 52.61350 2.56686 41053 ft 489 kts 112°
2026-05-07 15:31 52.58842 2.67055 41058 ft 489 kts 113°
2026-05-07 15:32 52.56331 2.77418 41061 ft 489 kts 113°
2026-05-07 15:32 52.53774 2.87783 41058 ft 489 kts 114°
2026-05-07 15:33 52.51101 2.98018 41058 ft 489 kts 114°
2026-05-07 15:33 52.48415 3.08226 41065 ft 489 kts 114°
2026-05-07 15:34 52.45731 3.18421 41064 ft 489 kts 114°
2026-05-07 15:34 52.43043 3.28602 41066 ft 489 kts 114°
2026-05-07 15:35 52.40346 3.38782 41069 ft 489 kts 114°
2026-05-07 15:35 52.37641 3.48948 41066 ft 489 kts 114°
2026-05-07 15:36 52.34928 3.59101 41064 ft 489 kts 114°
2026-05-07 15:36 52.32206 3.69247 41056 ft 489 kts 115°
2026-05-07 15:37 52.29486 3.79367 41060 ft 489 kts 115°
2026-05-07 15:37 52.26748 3.89497 41061 ft 489 kts 115°
2026-05-07 15:38 52.24004 3.99589 41060 ft 489 kts 115°
2026-05-07 15:38 52.21243 4.09697 41057 ft 489 kts 115°
2026-05-07 15:39 52.18479 4.19771 41052 ft 489 kts 115°
2026-05-07 15:39 52.15706 4.29834 41052 ft 489 kts 115°
2026-05-07 15:40 52.12925 4.39882 41049 ft 489 kts 115°
2026-05-07 15:40 52.10132 4.49929 41047 ft 489 kts 115°
2026-05-07 15:41 52.07336 4.59941 41050 ft 489 kts 115°
2026-05-07 15:41 52.04537 4.69936 41050 ft 488 kts 116°
2026-05-07 15:42 52.01730 4.79937 41047 ft 488 kts 116°
2026-05-07 15:42 51.98915 4.89907 41043 ft 488 kts 116°
2026-05-07 15:43 51.96089 4.99861 41041 ft 488 kts 116°
2026-05-07 15:43 51.93255 5.09800 41041 ft 488 kts 116°
2026-05-07 15:44 51.90413 5.19721 41039 ft 488 kts 116°
2026-05-07 15:44 51.87543 5.29626 41038 ft 488 kts 116°
2026-05-07 15:45 51.84664 5.39508 41041 ft 488 kts 116°
2026-05-07 15:45 51.81787 5.49398 41037 ft 488 kts 116°
2026-05-07 15:46 51.77463 5.64218 41042 ft 488 kts 116°
2026-05-07 15:47 51.74576 5.74100 41040 ft 488 kts 117°
2026-05-07 15:47 51.71674 5.83987 41043 ft 488 kts 117°
2026-05-07 15:48 51.68762 5.93852 41037 ft 488 kts 117°
2026-05-07 15:48 51.65843 6.03694 41039 ft 488 kts 117°
2026-05-07 15:49 51.62914 6.13527 41032 ft 489 kts 117°
2026-05-07 15:49 51.59980 6.23337 41031 ft 489 kts 117°
2026-05-07 15:50 51.57034 6.33149 41030 ft 489 kts 117°
2026-05-07 15:50 51.54073 6.42974 41027 ft 489 kts 117°
2026-05-07 15:51 51.51098 6.52803 41028 ft 490 kts 117°
2026-05-07 15:51 51.48117 6.62620 41033 ft 490 kts 117°
2026-05-07 15:52 51.45137 6.72408 41030 ft 490 kts 117°
2026-05-07 15:52 51.42083 6.82116 41031 ft 490 kts 121°
2026-05-07 15:53 51.38496 6.91310 41030 ft 488 kts 127°
2026-05-07 15:53 51.34372 6.99872 41031 ft 488 kts 130°
2026-05-07 15:54 51.30152 7.08342 41029 ft 488 kts 130°
2026-05-07 15:54 51.26043 7.16966 41026 ft 489 kts 126°
2026-05-07 15:55 51.22332 7.25998 41022 ft 489 kts 124°
2026-05-07 15:55 51.18629 7.35064 41024 ft 489 kts 124°
2026-05-07 15:56 51.14918 7.44113 41018 ft 489 kts 124°
2026-05-07 15:56 51.11199 7.53152 41020 ft 489 kts 124°
2026-05-07 15:57 51.07483 7.62151 41017 ft 489 kts 124°
2026-05-07 15:57 51.03758 7.71158 41016 ft 489 kts 125°
2026-05-07 15:58 51.00030 7.80145 41011 ft 489 kts 125°
2026-05-07 15:58 50.96287 7.89113 41008 ft 489 kts 126°
2026-05-07 15:59 50.92230 7.97721 41005 ft 488 kts 131°
2026-05-07 15:59 50.87628 8.05551 41009 ft 486 kts 138°
2026-05-07 16:00 50.82746 8.12929 41013 ft 487 kts 137°
2026-05-07 16:00 50.77882 8.20313 41018 ft 487 kts 137°
2026-05-07 16:01 50.73012 8.27702 41019 ft 487 kts 137°
2026-05-07 16:01 50.68140 8.35077 41018 ft 487 kts 137°
2026-05-07 16:02 50.63260 8.42442 41019 ft 487 kts 137°
2026-05-07 16:02 50.58365 8.49812 41014 ft 487 kts 137°
2026-05-07 16:03 50.53462 8.57170 41017 ft 488 kts 137°
2026-05-07 16:03 50.48561 8.64508 41020 ft 488 kts 137°
2026-05-07 16:04 50.43658 8.71844 41018 ft 488 kts 138°
2026-05-07 16:04 50.38895 8.79377 41019 ft 489 kts 133°
2026-05-07 16:05 50.34663 8.87724 41018 ft 491 kts 126°
2026-05-07 16:05 50.31075 8.96823 41018 ft 493 kts 120°
2026-05-07 16:06 50.28134 9.06474 41022 ft 494 kts 116°
2026-05-07 16:06 50.25318 9.16223 41019 ft 494 kts 116°
2026-05-07 16:07 50.22485 9.25963 41015 ft 494 kts 116°
2026-05-07 16:07 50.19642 9.35676 41014 ft 494 kts 116°
2026-05-07 16:08 50.16785 9.45389 41008 ft 494 kts 116°
2026-05-07 16:08 50.13917 9.55102 41002 ft 497 kts 116°
2026-05-07 16:09 50.11017 9.64883 41002 ft 501 kts 116°
2026-05-07 16:09 50.08098 9.74716 41006 ft 504 kts 116°
2026-05-07 16:10 50.05450 9.84804 41011 ft 507 kts 112°
2026-05-07 16:10 50.02966 9.95065 41010 ft 509 kts 112°
2026-05-07 16:11 50.00453 10.05388 41006 ft 511 kts 112°
2026-05-07 16:11 49.97930 10.15698 41002 ft 513 kts 112°
2026-05-07 16:12 49.95387 10.26029 41003 ft 515 kts 112°
2026-05-07 16:12 49.92825 10.36372 41004 ft 516 kts 113°
2026-05-07 16:13 49.89932 10.46498 41005 ft 516 kts 116°
2026-05-07 16:13 49.86878 10.56538 41001 ft 517 kts 116°
2026-05-07 16:14 49.83813 10.66589 41001 ft 518 kts 117°
2026-05-07 16:14 49.80757 10.76658 40996 ft 519 kts 117°
2026-05-07 16:15 49.77691 10.86729 40995 ft 520 kts 117°
2026-05-07 16:15 49.74604 10.96820 41000 ft 520 kts 117°
2026-05-07 16:16 49.71500 11.06916 41005 ft 521 kts 117°
2026-05-07 16:16 49.68392 11.16985 41003 ft 522 kts 117°
2026-05-07 16:17 49.65269 11.27065 41001 ft 522 kts 117°
2026-05-07 16:17 49.62143 11.37120 40999 ft 523 kts 117°
2026-05-07 16:18 49.58997 11.47186 40998 ft 523 kts 117°
2026-05-07 16:18 49.56056 11.57394 40997 ft 524 kts 112°
2026-05-07 16:19 49.53606 11.67955 40996 ft 525 kts 111°
2026-05-07 16:19 49.51208 11.78523 40998 ft 525 kts 111°
2026-05-07 16:20 49.48796 11.89063 40991 ft 525 kts 111°
2026-05-07 16:20 49.46368 11.99596 40992 ft 525 kts 111°
2026-05-07 16:21 49.43931 12.10111 40984 ft 524 kts 111°
2026-05-07 16:21 49.41485 12.20614 40986 ft 524 kts 111°
2026-05-07 16:22 49.39030 12.31101 40986 ft 524 kts 111°
2026-05-07 16:22 49.36545 12.41569 40985 ft 524 kts 113°
2026-05-07 16:23 49.33587 12.51695 40986 ft 522 kts 119°
2026-05-07 16:23 49.29977 12.61272 40981 ft 520 kts 125°
2026-05-07 16:24 49.25809 12.70243 40987 ft 518 kts 129°
2026-05-07 16:24 49.21540 12.79079 40983 ft 519 kts 129°
2026-05-07 16:25 49.17268 12.87899 40979 ft 518 kts 129°
2026-05-07 16:25 49.12985 12.96705 40981 ft 518 kts 129°
2026-05-07 16:26 49.08690 13.05503 40980 ft 518 kts 129°
2026-05-07 16:26 49.04397 13.14270 40977 ft 518 kts 129°
2026-05-07 16:27 49.00094 13.23026 40977 ft 518 kts 129°
2026-05-07 16:27 48.95778 13.31783 40975 ft 518 kts 129°
2026-05-07 16:28 48.91462 13.40508 40976 ft 518 kts 129°
2026-05-07 16:28 48.87129 13.49214 40969 ft 518 kts 129°
2026-05-07 16:29 48.82782 13.57902 40975 ft 519 kts 129°
2026-05-07 16:29 48.78452 13.66604 40971 ft 519 kts 129°
2026-05-07 16:30 48.74493 13.75717 40977 ft 521 kts 123°
2026-05-07 16:30 48.70933 13.85260 40967 ft 522 kts 122°
2026-05-07 16:31 48.67382 13.94782 40968 ft 522 kts 122°
2026-05-07 16:31 48.63813 14.04314 40968 ft 522 kts 122°
2026-05-07 16:32 48.60214 14.13887 40967 ft 522 kts 122°
2026-05-07 16:32 48.56630 14.23382 40966 ft 522 kts 122°
2026-05-07 16:33 48.53030 14.32886 40967 ft 523 kts 122°
2026-05-07 16:33 48.49440 14.42332 40964 ft 523 kts 122°
2026-05-07 16:34 48.45829 14.51797 40965 ft 523 kts 122°
2026-05-07 16:34 48.42213 14.61242 40962 ft 523 kts 122°
2026-05-07 16:35 48.38591 14.70686 40966 ft 522 kts 123°
2026-05-07 16:35 48.34969 14.80116 40964 ft 522 kts 123°
2026-05-07 16:36 48.31333 14.89528 40960 ft 522 kts 123°
2026-05-07 16:36 48.27687 14.98920 40966 ft 523 kts 123°
2026-05-07 16:37 48.24032 15.08300 40968 ft 523 kts 123°
2026-05-07 16:37 48.20365 15.17679 40969 ft 522 kts 123°
2026-05-07 16:38 48.16703 15.27012 40973 ft 522 kts 124°
2026-05-07 16:38 48.13022 15.36355 40961 ft 522 kts 123°
2026-05-07 16:39 48.09340 15.45675 40974 ft 522 kts 123°
2026-05-07 16:39 48.05655 15.54968 40968 ft 522 kts 124°
2026-05-07 16:40 48.01956 15.64265 40972 ft 522 kts 124°
2026-05-07 16:40 47.98257 15.73554 40970 ft 522 kts 124°
2026-05-07 16:41 47.94558 15.82816 40963 ft 522 kts 124°
2026-05-07 16:41 47.90840 15.92070 40962 ft 522 kts 124°
2026-05-07 16:42 47.87105 16.01284 40965 ft 522 kts 125°
2026-05-07 16:42 47.83351 16.10486 40949 ft 522 kts 124°
2026-05-07 16:43 47.79598 16.19703 40948 ft 522 kts 124°
2026-05-07 16:43 47.75847 16.28904 40943 ft 523 kts 124°
2026-05-07 16:44 47.72081 16.38116 40940 ft 522 kts 124°
2026-05-07 16:44 47.68313 16.47304 40940 ft 523 kts 124°
2026-05-07 16:45 47.64531 16.56493 40938 ft 523 kts 124°
2026-05-07 16:45 47.60739 16.65683 40936 ft 523 kts 125°
2026-05-07 16:46 47.56972 16.74890 40946 ft 524 kts 123°
2026-05-07 16:46 47.53556 16.84385 40943 ft 525 kts 121°
2026-05-07 16:47 47.50186 16.93942 40945 ft 526 kts 121°
2026-05-07 16:47 47.46806 17.03489 40944 ft 526 kts 121°
2026-05-07 16:48 47.43417 17.13020 40966 ft 525 kts 121°
2026-05-07 16:48 47.40026 17.22523 40960 ft 525 kts 121°
2026-05-07 16:49 47.36622 17.32027 40980 ft 525 kts 121°
2026-05-07 16:49 47.33213 17.41513 40975 ft 525 kts 121°
2026-05-07 16:50 47.29801 17.50969 40974 ft 525 kts 121°
2026-05-07 16:50 47.26378 17.60426 40983 ft 525 kts 121°
2026-05-07 16:51 47.22950 17.69874 40975 ft 525 kts 122°
2026-05-07 16:51 47.19528 17.79292 40971 ft 525 kts 122°
2026-05-07 16:52 47.16089 17.88704 40977 ft 525 kts 122°
2026-05-07 16:52 47.12638 17.98101 40982 ft 524 kts 122°
2026-05-07 16:53 47.09175 18.07494 40982 ft 524 kts 122°
2026-05-07 16:53 47.05705 18.16868 40991 ft 524 kts 122°
2026-05-07 16:54 47.02168 18.26146 40994 ft 523 kts 123°
2026-05-07 16:54 46.98571 18.35391 40996 ft 523 kts 123°
2026-05-07 16:55 46.94974 18.44615 41001 ft 523 kts 123°
2026-05-07 16:55 46.91381 18.53816 40986 ft 523 kts 123°
2026-05-07 16:56 46.87761 18.63025 40998 ft 523 kts 123°
2026-05-07 16:56 46.82318 18.76815 40997 ft 522 kts 123°
2026-05-07 16:57 46.78699 18.85983 41012 ft 522 kts 123°
2026-05-07 16:57 46.75078 18.95127 41006 ft 522 kts 123°
2026-05-07 16:58 46.71435 19.04293 40986 ft 522 kts 123°
2026-05-07 16:58 46.67790 19.13432 41007 ft 522 kts 123°
2026-05-07 16:59 46.64143 19.22546 40991 ft 521 kts 123°
2026-05-07 16:59 46.60494 19.31636 41004 ft 522 kts 123°
2026-05-07 17:00 46.56832 19.40732 41008 ft 521 kts 123°
2026-05-07 17:00 46.53163 19.49812 41004 ft 522 kts 123°
2026-05-07 17:01 46.49499 19.58851 41003 ft 521 kts 123°
2026-05-07 17:01 46.45812 19.67926 41002 ft 521 kts 124°
2026-05-07 17:02 46.42130 19.76971 41001 ft 520 kts 125°
2026-05-07 17:02 46.38117 19.85603 40995 ft 517 kts 130°
2026-05-07 17:03 46.33623 19.93742 40997 ft 516 kts 133°
2026-05-07 17:03 46.29102 20.01813 41004 ft 516 kts 133°
2026-05-07 17:04 46.24596 20.09841 40998 ft 516 kts 132°
2026-05-07 17:04 46.20089 20.17853 40998 ft 516 kts 132°
2026-05-07 17:05 46.15578 20.25850 40996 ft 515 kts 132°
2026-05-07 17:05 46.11055 20.33846 41001 ft 515 kts 132°
2026-05-07 17:06 46.06510 20.41856 41004 ft 515 kts 132°
2026-05-07 17:06 46.01941 20.49887 40996 ft 515 kts 132°
2026-05-07 17:07 45.97379 20.57882 41004 ft 515 kts 132°
2026-05-07 17:07 45.92830 20.65832 40999 ft 515 kts 133°
2026-05-07 17:08 45.88261 20.73818 41004 ft 514 kts 133°
2026-05-07 17:08 45.83711 20.81691 41004 ft 514 kts 133°
2026-05-07 17:09 45.79145 20.89582 41009 ft 514 kts 133°
2026-05-07 17:09 45.74564 20.97499 41008 ft 514 kts 133°
2026-05-07 17:10 45.70004 21.05357 41009 ft 514 kts 133°
2026-05-07 17:10 45.65438 21.13204 41004 ft 514 kts 133°
2026-05-07 17:11 45.60838 21.20995 41008 ft 514 kts 134°
2026-05-07 17:11 45.56205 21.28735 41006 ft 514 kts 133°
2026-05-07 17:12 45.51566 21.36471 41006 ft 514 kts 133°
2026-05-07 17:12 45.46920 21.44210 41006 ft 514 kts 133°
2026-05-07 17:13 45.42258 21.51954 41011 ft 515 kts 133°
2026-05-07 17:13 45.37590 21.59691 41008 ft 515 kts 133°
2026-05-07 17:14 45.32912 21.67428 41008 ft 515 kts 134°
2026-05-07 17:14 45.28268 21.75118 41011 ft 514 kts 134°
2026-05-07 17:15 45.23620 21.82776 41015 ft 514 kts 134°
2026-05-07 17:15 45.18949 21.90440 41028 ft 514 kts 134°
2026-05-07 17:16 45.14270 21.98091 41030 ft 514 kts 134°
2026-05-07 17:16 45.09586 22.05726 41037 ft 514 kts 134°
2026-05-07 17:17 45.04905 22.13336 41033 ft 515 kts 134°
2026-05-07 17:17 45.00209 22.20949 41023 ft 515 kts 134°
2026-05-07 17:18 44.95487 22.28586 41025 ft 515 kts 134°
2026-05-07 17:18 44.90779 22.36176 41022 ft 515 kts 134°
2026-05-07 17:19 44.86040 22.43765 41032 ft 516 kts 134°
2026-05-07 17:19 44.81310 22.51310 41033 ft 516 kts 134°
2026-05-07 17:20 44.76550 22.58905 41026 ft 516 kts 133°
2026-05-07 17:20 44.71804 22.66474 41027 ft 517 kts 134°
2026-05-07 17:21 44.67070 22.74041 41026 ft 517 kts 134°
2026-05-07 17:21 44.62320 22.81599 41017 ft 518 kts 134°
2026-05-07 17:22 44.57553 22.89147 41020 ft 518 kts 134°
2026-05-07 17:22 44.52733 22.96755 41020 ft 519 kts 134°
2026-05-07 17:23 44.47950 23.04284 41029 ft 518 kts 134°
2026-05-07 17:23 44.43155 23.11811 41024 ft 519 kts 134°
2026-05-07 17:24 44.38363 23.19315 41044 ft 519 kts 134°
2026-05-07 17:24 44.33549 23.26829 41029 ft 519 kts 134°
2026-05-07 17:25 44.28718 23.34355 41025 ft 520 kts 134°
2026-05-07 17:25 44.23894 23.41843 41034 ft 519 kts 134°
2026-05-07 17:26 44.19078 23.49307 41029 ft 519 kts 134°
2026-05-07 17:26 44.14231 23.56794 41025 ft 519 kts 134°
2026-05-07 17:27 44.09392 23.64249 41031 ft 519 kts 134°
2026-05-07 17:27 44.04558 23.71702 41013 ft 519 kts 135°
2026-05-07 17:28 43.99656 23.79028 41030 ft 518 kts 136°
2026-05-07 17:28 43.94711 23.86285 41026 ft 518 kts 136°
2026-05-07 17:29 43.89751 23.93558 41016 ft 518 kts 136°
2026-05-07 17:29 43.84790 24.00785 41017 ft 518 kts 136°
2026-05-07 17:30 43.79827 24.08016 41022 ft 517 kts 135°
2026-05-07 17:30 43.74887 24.15219 41014 ft 518 kts 135°
2026-05-07 17:31 43.69946 24.22411 41023 ft 518 kts 136°
2026-05-07 17:31 43.64829 24.29361 41020 ft 517 kts 138°
2026-05-07 17:32 43.59665 24.36241 41027 ft 517 kts 138°
2026-05-07 17:32 43.55347 24.41987 41019 ft 517 kts 138°
2026-05-07 17:33 43.49307 24.49999 41020 ft 517 kts 138°
2026-05-07 17:33 43.44120 24.56862 41028 ft 517 kts 138°
2026-05-07 17:34 43.38927 24.63718 41023 ft 517 kts 137°
2026-05-07 17:34 43.33710 24.70607 41030 ft 517 kts 138°
2026-05-07 17:35 43.28529 24.77438 41040 ft 517 kts 138°
2026-05-07 17:35 43.23317 24.84270 41035 ft 518 kts 138°
2026-05-07 17:36 43.18098 24.91086 41043 ft 517 kts 138°
2026-05-07 17:36 43.12890 24.97871 41046 ft 517 kts 138°
2026-05-07 17:37 43.07678 25.04661 41056 ft 517 kts 138°
2026-05-07 17:37 43.02444 25.11469 41051 ft 517 kts 138°
2026-05-07 17:38 42.97232 25.18224 41052 ft 517 kts 138°
2026-05-07 17:38 42.92002 25.24984 41060 ft 518 kts 138°
2026-05-07 17:39 42.86763 25.31722 41070 ft 518 kts 138°
2026-05-07 17:39 42.81516 25.38435 41069 ft 518 kts 138°
2026-05-07 17:40 42.76263 25.45158 41093 ft 518 kts 138°
2026-05-07 17:40 42.71020 25.51867 41095 ft 519 kts 138°
2026-05-07 17:41 42.65855 25.58467 41090 ft 498 kts 138°
2026-05-07 17:41 42.60866 25.64825 41075 ft 492 kts 138°
2026-05-07 17:42 42.55894 25.71173 41072 ft 493 kts 139°
2026-05-07 17:42 42.50915 25.77504 41064 ft 493 kts 139°
2026-05-07 17:43 42.45930 25.83817 40876 ft 488 kts 139°
2026-05-07 17:43 42.43466 25.86930 40471 ft 486 kts 139°
2026-05-07 17:43 42.41012 25.90025 39789 ft 484 kts 139°
2026-05-07 17:44 42.38560 25.93114 39082 ft 482 kts 139°
2026-05-07 17:44 42.36110 25.96195 38257 ft 482 kts 139°
2026-05-07 17:44 42.33657 25.99276 37336 ft 484 kts 139°
2026-05-07 17:44 42.31190 26.02410 36424 ft 486 kts 137°
2026-05-07 17:45 42.28813 26.05697 35629 ft 490 kts 134°
2026-05-07 17:45 42.26559 26.09164 34801 ft 495 kts 130°
2026-05-07 17:45 42.24418 26.12855 33906 ft 498 kts 127°
2026-05-07 17:45 42.22431 26.16708 32956 ft 502 kts 123°
2026-05-07 17:46 42.20608 26.20711 32044 ft 504 kts 120°
2026-05-07 17:46 42.18895 26.24824 31137 ft 506 kts 119°
2026-05-07 17:46 42.17195 26.28932 30548 ft 501 kts 119°
2026-05-07 17:46 42.15507 26.33004 30038 ft 495 kts 119°
2026-05-07 17:47 42.13830 26.37035 29467 ft 491 kts 119°
2026-05-07 17:47 42.12156 26.41041 28921 ft 487 kts 119°
2026-05-07 17:47 42.10498 26.44996 28379 ft 483 kts 119°
2026-05-07 17:47 42.08829 26.48973 27799 ft 479 kts 119°
2026-05-07 17:48 42.07195 26.52855 27257 ft 475 kts 119°
2026-05-07 17:48 42.05577 26.56697 26725 ft 471 kts 119°
2026-05-07 17:48 42.03974 26.60499 26166 ft 468 kts 118°
2026-05-07 17:48 42.02383 26.64265 25850 ft 464 kts 118°
2026-05-07 17:49 42.00780 26.68060 25576 ft 464 kts 119°
2026-05-07 17:49 41.99177 26.71864 25311 ft 462 kts 120°
2026-05-07 17:49 41.97488 26.75599 25041 ft 460 kts 123°
2026-05-07 17:49 41.95629 26.79194 24771 ft 459 kts 127°
2026-05-07 17:50 41.93663 26.82568 24485 ft 458 kts 129°
2026-05-07 17:50 41.91676 26.85876 24121 ft 455 kts 129°
2026-05-07 17:50 41.89691 26.89164 23717 ft 452 kts 129°
2026-05-07 17:50 41.87718 26.92413 23286 ft 448 kts 129°
2026-05-07 17:51 41.85758 26.95635 22862 ft 445 kts 129°
2026-05-07 17:51 41.83818 26.98832 22445 ft 441 kts 129°
2026-05-07 17:51 41.81891 27.02014 22032 ft 437 kts 129°
2026-05-07 17:51 41.79981 27.05172 21615 ft 434 kts 128°
2026-05-07 17:52 41.78097 27.08285 21226 ft 430 kts 128°
2026-05-07 17:52 41.76224 27.11382 20810 ft 426 kts 128°
2026-05-07 17:52 41.74370 27.14444 20423 ft 423 kts 128°
2026-05-07 17:52 41.72526 27.17487 20001 ft 419 kts 128°
2026-05-07 17:53 41.70701 27.20496 19607 ft 415 kts 128°
2026-05-07 17:53 41.68894 27.23475 19203 ft 411 kts 128°
2026-05-07 17:53 41.67102 27.26425 18797 ft 407 kts 128°
2026-05-07 17:53 41.65327 27.29342 18421 ft 404 kts 128°
2026-05-07 17:54 41.63565 27.32238 17983 ft 401 kts 128°
2026-05-07 17:54 41.61821 27.35100 17603 ft 396 kts 128°
2026-05-07 17:54 41.60090 27.37939 17228 ft 393 kts 129°
2026-05-07 17:54 41.58376 27.40747 16821 ft 390 kts 129°
2026-05-07 17:55 41.56670 27.43538 16426 ft 387 kts 129°
2026-05-07 17:55 41.54977 27.46307 16011 ft 383 kts 129°
2026-05-07 17:55 41.53301 27.49044 15623 ft 380 kts 129°
2026-05-07 17:55 41.51638 27.51759 15216 ft 377 kts 129°
2026-05-07 17:56 41.49983 27.54456 14831 ft 374 kts 129°
2026-05-07 17:56 41.48342 27.57128 14449 ft 371 kts 129°
2026-05-07 17:56 41.46717 27.59773 14047 ft 369 kts 129°
2026-05-07 17:56 41.45098 27.62406 13668 ft 366 kts 129°
2026-05-07 17:57 41.43493 27.65014 13271 ft 363 kts 129°
2026-05-07 17:57 41.42431 27.66742 13014 ft 362 kts 129°
2026-05-07 17:57 41.40320 27.70186 12468 ft 358 kts 129°
2026-05-07 17:57 41.38749 27.72741 12057 ft 356 kts 129°
2026-05-07 17:58 41.37187 27.75278 11671 ft 353 kts 129°
2026-05-07 17:58 41.35636 27.77790 11267 ft 351 kts 129°
2026-05-07 17:58 41.34086 27.80298 10874 ft 348 kts 130°
2026-05-07 17:58 41.32554 27.82773 10513 ft 345 kts 130°
2026-05-07 17:59 41.31055 27.85191 10358 ft 332 kts 130°
2026-05-07 17:59 41.29617 27.87510 10267 ft 319 kts 130°
2026-05-07 17:59 41.28229 27.89746 10156 ft 307 kts 130°
2026-05-07 17:59 41.26895 27.91893 10051 ft 294 kts 130°
2026-05-07 18:00 41.25618 27.93946 10013 ft 285 kts 130°
2026-05-07 18:00 41.24363 27.95964 9836 ft 283 kts 130°
2026-05-07 18:00 41.23109 27.97979 9569 ft 283 kts 130°
2026-05-07 18:00 41.21860 27.99985 9329 ft 282 kts 130°
2026-05-07 18:01 41.20606 28.01999 9011 ft 281 kts 130°
2026-05-07 18:01 41.19364 28.03992 8767 ft 280 kts 130°
2026-05-07 18:01 41.18127 28.05975 8533 ft 278 kts 130°
2026-05-07 18:01 41.16893 28.07950 8263 ft 278 kts 130°
2026-05-07 18:02 41.14427 28.11894 7756 ft 277 kts 130°
2026-05-07 18:02 41.13199 28.13860 7476 ft 276 kts 130°
2026-05-07 18:02 41.11975 28.15816 7242 ft 276 kts 130°
2026-05-07 18:03 41.10751 28.17768 6953 ft 275 kts 131°
2026-05-07 18:03 41.09534 28.19709 6711 ft 273 kts 131°
2026-05-07 18:03 41.08319 28.21645 6473 ft 273 kts 131°
2026-05-07 18:03 41.07110 28.23573 6214 ft 272 kts 131°
2026-05-07 18:04 41.05901 28.25496 5973 ft 271 kts 131°
2026-05-07 18:04 41.04691 28.27419 5723 ft 271 kts 131°
2026-05-07 18:04 41.03485 28.29335 5466 ft 270 kts 131°
2026-05-07 18:04 41.02285 28.31240 5212 ft 269 kts 131°
2026-05-07 18:05 41.01080 28.33153 5008 ft 266 kts 131°
2026-05-07 18:05 40.99916 28.35002 4963 ft 255 kts 131°
2026-05-07 18:05 40.98795 28.36782 4962 ft 247 kts 131°
2026-05-07 18:05 40.97712 28.38585 4959 ft 248 kts 126°
2026-05-07 18:06 40.96779 28.40532 4963 ft 249 kts 121°
2026-05-07 18:06 40.95918 28.42524 4956 ft 249 kts 120°
2026-05-07 18:06 40.95062 28.44533 4955 ft 249 kts 120°
2026-05-07 18:06 40.94212 28.46520 4957 ft 249 kts 120°
2026-05-07 18:07 40.93359 28.48506 4947 ft 249 kts 120°
2026-05-07 18:07 40.92501 28.50496 4950 ft 249 kts 120°
2026-05-07 18:07 40.91631 28.52513 4959 ft 248 kts 120°
2026-05-07 18:07 40.90773 28.54499 4967 ft 248 kts 120°
2026-05-07 18:08 40.89914 28.56484 4963 ft 248 kts 120°
2026-05-07 18:08 40.89215 28.58580 4937 ft 248 kts 97°
2026-05-07 18:08 40.89435 28.60789 4970 ft 245 kts 68°
2026-05-07 18:08 40.90047 28.62906 4963 ft 246 kts 66°
2026-05-07 18:09 40.90670 28.65028 4961 ft 247 kts 68°
2026-05-07 18:09 40.91264 28.67158 4958 ft 247 kts 69°
2026-05-07 18:09 40.92010 28.69159 4934 ft 237 kts 44°
2026-05-07 18:09 40.93283 28.70353 4964 ft 217 kts 25°
2026-05-07 18:10 40.94589 28.71258 4958 ft 205 kts 24°
2026-05-07 18:10 40.95830 28.72121 4961 ft 197 kts 24°
2026-05-07 18:10 40.96999 28.72951 4976 ft 182 kts 24°
2026-05-07 18:10 40.98117 28.73435 4986 ft 158 kts 359°
2026-05-07 18:11 40.99187 28.73446 4975 ft 149 kts 353°
2026-05-07 18:11 40.99874 28.73408 4966 ft 145 kts 352°
2026-05-07 18:11 41.01223 28.73325 4969 ft 144 kts 352°
2026-05-07 18:11 41.02232 28.73274 4848 ft 145 kts 353°
2026-05-07 18:12 41.03233 28.73240 4664 ft 144 kts 353°
2026-05-07 18:12 41.04234 28.73211 4480 ft 143 kts 354°
2026-05-07 18:12 41.05231 28.73188 4298 ft 143 kts 354°
2026-05-07 18:12 41.06227 28.73166 4115 ft 142 kts 354°
2026-05-07 18:13 41.07218 28.73146 3932 ft 142 kts 354°
2026-05-07 18:13 41.08206 28.73126 3750 ft 141 kts 354°
2026-05-07 18:13 41.09191 28.73106 3568 ft 141 kts 354°
2026-05-07 18:13 41.10177 28.73088 3385 ft 141 kts 354°
2026-05-07 18:14 41.11163 28.73070 3203 ft 140 kts 354°
2026-05-07 18:14 41.12140 28.73052 3021 ft 140 kts 354°
2026-05-07 18:14 41.13116 28.73034 2837 ft 140 kts 355°
2026-05-07 18:14 41.14090 28.73015 2655 ft 139 kts 355°
2026-05-07 18:15 41.15061 28.72996 2476 ft 139 kts 355°
2026-05-07 18:15 41.16030 28.72976 2295 ft 139 kts 356°
2026-05-07 18:15 41.17001 28.72957 2117 ft 139 kts 356°
2026-05-07 18:15 41.17965 28.72938 1932 ft 138 kts 356°
2026-05-07 18:16 41.18926 28.72919 1753 ft 138 kts 356°
2026-05-07 18:16 41.19887 28.72900 1573 ft 138 kts 357°
2026-05-07 18:16 41.20844 28.72883 1377 ft 137 kts 358°
2026-05-07 18:16 41.21798 28.72866 1144 ft 137 kts 359°
2026-05-07 18:17 41.22750 28.72845 958 ft 136 kts 359°
2026-05-07 18:17 41.23699 28.72819 790 ft 136 kts 360°
2026-05-07 18:17 41.24645 28.72806 617 ft 136 kts
2026-05-07 18:17 41.25587 28.72790 451 ft 134 kts
2026-05-07 18:18 41.26519 28.72766 348 ft 132 kts
2026-05-07 18:18 41.27197 28.72756 339 ft 58 kts 360°
2026-05-07 18:18 41.27516 28.72750 339 ft 20 kts 359°
2026-05-07 18:18 41.27667 28.72750 338 ft 22 kts 359°
2026-05-07 18:19 41.27827 28.72747 338 ft 23 kts
2026-05-07 18:19 41.27963 28.72779 338 ft 19 kts 20°
2026-05-07 18:19 41.28050 28.72832 338 ft 0 kts 28°
2026-05-07 18:19 41.28064 28.72842 338 ft 7 kts 28°
2026-05-07 18:20 41.28102 28.72869 338 ft 4 kts 29°
2026-05-07 18:20 41.28138 28.72896 338 ft 7 kts 29°
2026-05-07 18:20 41.28188 28.72933 338 ft 9 kts 30°
2026-05-07 18:20 41.28196 28.72940 338 ft 0 kts 34°
2026-05-07 18:21 41.28198 28.72943 338 ft 0 kts 53°
2026-05-07 18:21 41.28199 28.72949 338 ft 0 kts 84°
2026-05-07 18:21 41.28198 28.72952 338 ft 0 kts 105°
2026-05-07 18:21 41.28197 28.72955 338 ft 0 kts 111°
2026-05-07 18:22 41.28193 28.72961 338 ft 0 kts 131°
2026-05-07 18:22 41.28187 28.72968 338 ft 1 kts 146°
2026-05-07 18:22 41.27949 28.72972 338 ft 24 kts 179°
2026-05-07 18:22 41.27865 28.72971 338 ft 23 kts 180°
2026-05-07 18:23 41.27712 28.72973 337 ft 4 kts 179°
2026-05-07 18:23 41.27672 28.72974 338 ft 10 kts 179°
2026-05-07 18:23 41.27363 28.72980 339 ft 59 kts 179°
2026-05-07 18:23 41.26980 28.72987 339 ft 30 kts 179°
2026-05-07 18:24 41.26874 28.73000 339 ft 7 kts 148°
2026-05-07 18:24 41.26855 28.73068 339 ft 9 kts 91°
2026-05-07 18:24 41.26857 28.73189 339 ft 26 kts 89°
2026-05-07 18:24 41.26860 28.73374 339 ft 16 kts 88°
2026-05-07 18:25 41.26856 28.73416 339 ft 3 kts 116°
2026-05-07 18:25 41.26819 28.73442 339 ft 8 kts 166°
2026-05-07 18:25 41.26799 28.73445 339 ft 1 kts 175°
2026-05-07 18:25 41.26776 28.73446 339 ft 1 kts 178°
2026-05-07 18:26 41.26773 28.73447 339 ft 0 kts 179°